P/2008 T1 ( Boattini )

Japanese version
Home page
Updated on March 17, 2010

---------------------------------------------------------------------

* Profile

Discovery Date October 1, 2008
Magnitude 18.0 mag
Discoverer A. Boattini (Mt. Lemmon)

* Pictures

* Orbital Elements

Epoch 2008 Feb. 24.0 TT = JDT 2454520.5
T 2008 Feb. 26.33103 TT                                 MPC
q   3.0427858            (2000.0)            P               Q
n   0.11312613     Peri.   35.85765     +0.84413086     +0.53507329
a   4.2340966      Node   291.75972     -0.49997780     +0.76290409
e   0.2813613      Incl.    2.08311     -0.19355956     +0.36286903
P   8.71

* Magnitudes Graph

        m1 = 6.0 + 5 log d + 20.0 log r

---------------------------------------------------------------------

The orbital elements are published on M.P.E.C. 2009-U41.
The magnitudes graphs are made with Comet for Windows.

---------------------------------------------------------------------

Copyright(C) Seiichi Yoshida (comet@aerith.net). All rights reserved.